Location: Hradec Kralove
(50.2170°N, 15.8330°E)
Time: 02:13:27
(UTC+01:00)

Tiangong - Pass Details

Date: 08 December 2022
Orbit: 383 x 386 km, 41.5° (Epoch: 31 January)

Event Time Altitude Azimuth Distance (km) Brightness Sun altitude
Rises 16:49:43 0° 247° (WSW) 2,252 4.3 -8.5°
Reaches altitude 10° 16:52:16 10° 226° (SW) 1,400 2.1 -8.8°
Maximum altitude 16:54:23 17° 184° (S) 1,065 0.5 -9.1°
Drops below altitude 10° 16:56:31 10° 141° (SE) 1,401 0.6 -9.5°
Enters shadow 16:58:38 - 122° (ESE) 2,096 1.3 -9.8°
